Weather History for KTSP - June, 2013

Change the Weather History Date:

Saturday, June 1, 2013

  Actual Average Record
Temperature  
Mean Temperature 66 °F -  
Max Temperature 89 °F 76 °F 89 °F (2013)
Min Temperature 44 °F 47 °F 44 °F (2013)
Cooling Degree Days 2    
Growing Degree Days 16 (Base 50)    
Moisture  
Dew Point 36 °F    
Average Humidity 37    
Maximum Humidity 76    
Minimum Humidity 7    
Precipitation  
Precipitation 0.00 in - - ()
Sea Level Pressure  
Sea Level Pressure 30.02 in    
Wind  
Wind Speed 4 mph (NNE)    
Max Wind Speed 20 mph    
Max Gust Speed 26 mph    
Visibility 10 miles    
Events      
Averages and records for this station are not official NWS values.
T = Trace of Precipitation, MM = Missing Value Source: NWS Daily Summary

Daily Weather History Graph

Daily Weather History Graph

Search for Another Location

Airport or City:

Trip Planner

Search our weather history database for the weather conditions in past years. The results will help you decide how hot, cold, wet, or windy it might be!

Date:

Astronomy

Jun. 01, 2013 Rise Set
Actual Time 5:40 AM PDT 8:03 PM PDT
Civil Twilight 5:11 AM PDT 8:32 PM PDT
Nautical Twilight 4:35 AM PDT 9:08 PM PDT
Astronomical Twilight 3:55 AM PDT 9:47 PM PDT
Moon 1:24 AM PDT (6/1) 1:50 PM PDT (6/1)
Length of Visible Light 15h 21m
Length of Day
14h 22m
Last Quarter, 40% of the Moon is Illuminated
Jun 1
Last Quarter
Jun 8
New
Jun 16
First Quarter
Jun 23
Full
Jun 29
Last Quarter

Hourly Weather History & Observations

Time (PDT) Temp. Windchill Dew Point Humidity Pressure Visibility Wind Dir Wind Speed Gust Speed Precip Events Conditions
12:15 AM 57.2 °F - 39.2 °F 51% 30.09 in 10.0 mi Calm Calm - N/A   Clear
12:35 AM 55.4 °F - 39.2 °F 54% 30.08 in 10.0 mi Calm Calm - N/A   Clear
12:55 AM 55.4 °F - 37.4 °F 51% 30.08 in 10.0 mi Calm Calm - N/A   Clear
1:15 AM 53.6 °F - 37.4 °F 54% 30.08 in 10.0 mi Calm Calm - N/A   Clear
1:35 AM 50.0 °F - 37.4 °F 62% 30.07 in 10.0 mi Calm Calm - N/A   Clear
1:55 AM 50.0 °F - 37.4 °F 62% 30.07 in 10.0 mi Calm Calm - N/A   Clear
2:15 AM 50.0 °F - 37.4 °F 62% 30.06 in 10.0 mi Calm Calm - N/A   Clear
2:35 AM 50.0 °F - 39.2 °F 66% 30.06 in 10.0 mi SE 4.6 mph - N/A   Clear
2:55 AM 50.0 °F - 37.4 °F 62% 30.06 in 10.0 mi ENE 3.5 mph - N/A   Clear
3:15 AM 46.4 °F - 37.4 °F 71% 30.05 in 10.0 mi Calm Calm - N/A   Clear
3:35 AM 46.4 °F 44.3 °F 37.4 °F 71% 30.05 in 10.0 mi ESE 4.6 mph - N/A   Clear
3:55 AM 48.2 °F - 37.4 °F 66% 30.05 in 10.0 mi Calm Calm - N/A   Clear
4:15 AM 48.2 °F - 37.4 °F 66% 30.05 in 10.0 mi Calm Calm - N/A   Clear
4:35 AM 46.4 °F - 37.4 °F 71% 30.05 in 10.0 mi Calm Calm - N/A   Clear
4:55 AM 44.6 °F 42.2 °F 37.4 °F 76% 30.05 in 10.0 mi SE 4.6 mph - N/A   Clear
5:15 AM 46.4 °F 44.3 °F 37.4 °F 71% 30.05 in 10.0 mi ESE 4.6 mph - N/A   Clear
5:35 AM 46.4 °F - 35.6 °F 66% 30.05 in 10.0 mi Calm Calm - N/A   Clear
5:55 AM 46.4 °F 45.2 °F 37.4 °F 71% 30.05 in 10.0 mi East 3.5 mph - N/A   Clear
6:15 AM 48.2 °F - 37.4 °F 66% 30.05 in 10.0 mi East 4.6 mph - N/A   Clear
6:35 AM 50.0 °F - 39.2 °F 66% 30.05 in 10.0 mi East 3.5 mph - N/A   Clear
6:55 AM 55.4 °F - 39.2 °F 54% 30.05 in 10.0 mi Calm Calm - N/A   Clear
7:15 AM 57.2 °F - 41.0 °F 55% 30.05 in 10.0 mi Calm Calm - N/A   Clear
7:35 AM 62.6 °F - 41.0 °F 45% 30.05 in 10.0 mi SE 3.5 mph - N/A   Clear
7:55 AM 66.2 °F - 41.0 °F 40% 30.05 in 10.0 mi ESE 3.5 mph - N/A   Clear
8:15 AM 68.0 °F - 41.0 °F 37% 30.05 in 10.0 mi SSE 4.6 mph - N/A   Clear
8:35 AM 71.6 °F - 39.2 °F 31% 30.05 in 9.0 mi Calm Calm - N/A   Clear
8:55 AM 73.4 °F - 39.2 °F 29% 30.06 in 10.0 mi Calm Calm - N/A   Clear
9:15 AM 75.2 °F - 37.4 °F 25% 30.05 in 10.0 mi Calm Calm - N/A   Clear
9:35 AM 80.6 °F - 33.8 °F 18% 30.04 in 10.0 mi SE 5.8 mph - N/A   Clear
9:55 AM 84.2 °F - 24.8 °F 11% 30.04 in 10.0 mi East 12.7 mph - N/A   Clear
10:15 AM 84.2 °F - 19.4 °F 9% 30.04 in 10.0 mi East 10.4 mph - N/A   Clear
10:35 AM 86.0 °F - 19.4 °F 9% 30.04 in 10.0 mi East 15.0 mph 23.0 mph N/A   Clear
10:55 AM 86.0 °F - 19.4 °F 9% 30.04 in 10.0 mi ESE 16.1 mph 23.0 mph N/A   Clear
11:15 AM 86.0 °F - 19.4 °F 9% 30.04 in 10.0 mi SE 19.6 mph 25.3 mph N/A   Clear
11:35 AM 86.0 °F - 19.4 °F 9% 30.04 in 10.0 mi SE 18.4 mph 26.5 mph N/A   Clear
11:55 AM 84.2 °F - 17.6 °F 8% 30.04 in 10.0 mi SE 15.0 mph - N/A   Clear
12:15 PM 86.0 °F - 19.4 °F 9% 30.04 in 10.0 mi ESE 13.8 mph 19.6 mph N/A   Clear
12:35 PM 86.0 °F - 19.4 °F 9% 30.03 in 10.0 mi ESE 13.8 mph 20.7 mph N/A   Clear
12:55 PM 87.8 °F - 19.4 °F 8% 30.03 in 10.0 mi SE 8.1 mph 17.3 mph N/A   Clear
1:15 PM 87.8 °F - 19.4 °F 8% 30.03 in 10.0 mi ESE 10.4 mph 18.4 mph N/A   Clear
1:35 PM 87.8 °F - 17.6 °F 8% 30.02 in 10.0 mi East 4.6 mph - N/A   Clear
1:55 PM 89.6 °F - 17.6 °F 7% 30.01 in 10.0 mi ENE 3.5 mph - N/A   Clear
2:15 PM 89.6 °F - 17.6 °F 7% 30.00 in 10.0 mi North 3.5 mph - N/A   Clear
2:35 PM 89.6 °F - 17.6 °F 7% 30.01 in 10.0 mi West 3.5 mph - N/A   Clear
2:55 PM 89.6 °F - 32.0 °F 13% 29.99 in 10.0 mi NW 16.1 mph 24.2 mph N/A   Clear
3:15 PM 87.8 °F - 35.6 °F 16% 29.99 in 10.0 mi NW 16.1 mph 21.9 mph N/A   Clear
3:35 PM 87.8 °F - 37.4 °F 17% 29.99 in 10.0 mi NW 15.0 mph 18.4 mph N/A   Clear
3:55 PM 86.0 °F - 37.4 °F 18% 29.98 in 10.0 mi NW 18.4 mph 21.9 mph N/A   Clear
4:15 PM 86.0 °F - 37.4 °F 18% 29.98 in 10.0 mi NW 15.0 mph 21.9 mph N/A   Clear
4:35 PM 84.2 °F - 39.2 °F 20% 29.98 in 10.0 mi NW 16.1 mph 20.7 mph N/A   Clear
4:55 PM 82.4 °F - 39.2 °F 21% 29.98 in 10.0 mi NW 12.7 mph - N/A   Clear
5:15 PM 82.4 °F - 41.0 °F 23% 29.98 in 10.0 mi NW 15.0 mph - N/A   Clear
5:35 PM 78.8 °F - 41.0 °F 26% 29.98 in 10.0 mi WNW 11.5 mph - N/A   Clear
5:55 PM 78.8 °F - 42.8 °F 28% 29.97 in 10.0 mi WNW 11.5 mph - N/A   Clear
6:15 PM 77.0 °F - 42.8 °F 29% 29.97 in 10.0 mi WNW 12.7 mph - N/A   Clear
6:35 PM 75.2 °F - 44.6 °F 34% 29.97 in 10.0 mi NW 10.4 mph - N/A   Clear
6:55 PM 73.4 °F - 44.6 °F 36% 29.98 in 10.0 mi NW 10.4 mph 17.3 mph N/A   Clear
7:15 PM 73.4 °F - 44.6 °F 36% 29.98 in 10.0 mi WNW 10.4 mph - N/A   Clear
7:35 PM 73.4 °F - 44.6 °F 36% 29.98 in 10.0 mi WNW 6.9 mph - N/A   Clear
7:55 PM 71.6 °F - 44.6 °F 38% 29.98 in 10.0 mi West 6.9 mph - N/A   Clear
8:15 PM 69.8 °F - 44.6 °F 40% 29.98 in 10.0 mi West 4.6 mph - N/A   Partly Cloudy
8:35 PM 68.0 °F - 44.6 °F 43% 29.98 in 10.0 mi NNW 5.8 mph - N/A   Mostly Cloudy
8:55 PM 68.0 °F - 44.6 °F 43% 29.98 in 10.0 mi NNW 5.8 mph - N/A   Mostly Cloudy
9:15 PM 68.0 °F - 44.6 °F 43% 29.98 in 10.0 mi West 5.8 mph - N/A   Clear
9:35 PM 66.2 °F - 44.6 °F 46% 29.99 in 10.0 mi NW 3.5 mph - N/A   Clear
9:55 PM 66.2 °F - 44.6 °F 46% 29.99 in 10.0 mi West 3.5 mph - N/A   Mostly Cloudy
10:15 PM 68.0 °F - 44.6 °F 43% 29.99 in 10.0 mi West 4.6 mph - N/A   Overcast
10:35 PM 64.4 °F - 44.6 °F 49% 29.99 in 10.0 mi Calm Calm - N/A   Overcast
10:55 PM 64.4 °F - 42.8 °F 45% 29.99 in 10.0 mi Calm Calm - N/A   Overcast
11:15 PM 62.6 °F - 41.0 °F 45% 29.98 in 10.0 mi Calm Calm - N/A   Overcast
11:35 PM 62.6 °F - 42.8 °F 48% 29.98 in 10.0 mi Calm Calm - N/A   Overcast
11:55 PM 62.6 °F - 41.0 °F 45% 29.97 in 10.0 mi Calm Calm - N/A   Overcast